Pittsfield, MA

11:10 PM EDT on October 23, 2019 (GMT -0400)
Pittsfield Municipal

Weather History for KPSF - August, 2019

Change the Weather History Date:

Friday, August 2, 2019

  Actual Average Record
Temperature  
Mean Temperature 69 °F 68 °F  
Max Temperature 83 °F 79 °F 100 °F (1933)
Min Temperature 55 °F 57 °F 43 °F (1947)
Degree Days  
Heating Degree Days 0 1  
Month to date heating degree days 0 2  
Since 1 June heating degree days 67 134  
Since 1 July heating degree days 0 33  
Cooling Degree Days 4 4  
Month to date cooling degree days 9 8  
Year to date cooling degree days 285 185  
Since 1 June cooling degree days 279 172  
Growing Degree Days 18 (Base 50)    
Moisture  
Dew Point 57 °F    
Average Humidity 67    
Maximum Humidity 93    
Minimum Humidity 40    
Precipitation  
Precipitation T in 0.15 in 0.78 in (2017)
Month to date precipitation T 0.30  
Year to date precipitation 26.14 25.99  
Sea Level Pressure  
Sea Level Pressure 30.09 in    
Wind  
Wind Speed 2 mph (WNW)    
Max Wind Speed 12 mph    
Max Gust Speed 14 mph    
Visibility 9 miles    
Events      
T = Trace of Precipitation, MM = Missing Value Source: NWS Daily Summary

Daily Weather History Graph

Daily Weather History Graph

Search for Another Location

Airport or City:

Astronomy

Aug. 02, 2019 Rise Set
Actual Time 5:46 AM EDT 8:11 PM EDT
Civil Twilight 5:14 AM EDT 8:43 PM EDT
Nautical Twilight 4:35 AM EDT 9:22 PM EDT
Astronomical Twilight 3:50 AM EDT 10:06 PM EDT
Moon 7:22 AM EDT (8/2) 9:36 PM EDT (8/2)
Length of Visible Light 15h 29m
Length of Day
14h 25m
Waxing Crescent, 4% of the Moon is Illuminated
Aug 2
Waxing Crescent
Aug 7
First Quarter
Aug 15
Full
Aug 23
Last Quarter
Aug 30
New

Hourly Weather History & Observations

Time (EDT) Temp. Heat Index Dew Point Humidity Pressure Visibility Wind Dir Wind Speed Gust Speed Precip Events Conditions
12:54 AM 60.1 °F - 57.0 °F 90% 30.09 in 10.0 mi Calm Calm - N/A   Scattered Clouds
1:54 AM 59.0 °F - 57.0 °F 93% 30.09 in 10.0 mi Calm Calm - N/A   Clear
2:54 AM 59.0 °F - 55.9 °F 90% 30.10 in 8.0 mi Calm Calm - N/A   Scattered Clouds
3:35 AM 57.9 °F - 55.0 °F 90% 30.16 in 2.0 mi Calm Calm - N/A   Scattered Clouds
3:44 AM 57.0 °F - 55.0 °F 93% 30.16 in 9.0 mi Calm Calm - N/A   Scattered Clouds
3:54 AM 57.0 °F - 55.0 °F 93% 30.09 in 10.0 mi Calm Calm - N/A   Partly Cloudy
4:14 AM 55.9 °F - 54.0 °F 93% 30.16 in 1.5 mi Calm Calm - N/A   Partly Cloudy
4:23 AM 57.0 °F - 55.0 °F 93% 30.16 in 3.0 mi Calm Calm - N/A   Clear
4:36 AM 57.0 °F - 55.0 °F 93% 30.16 in 2.0 mi Calm Calm - N/A   Clear
4:54 AM 55.9 °F - 54.0 °F 93% 30.10 in 10.0 mi Calm Calm - N/A   Clear
5:54 AM 55.9 °F - 53.1 °F 90% 30.10 in 10.0 mi Calm Calm - N/A   Clear
6:54 AM 57.9 °F - 55.0 °F 90% 30.11 in 10.0 mi Calm Calm - N/A   Clear
7:54 AM 62.1 °F - 57.0 °F 84% 30.12 in 10.0 mi Calm Calm - N/A   Clear
8:54 AM 66.9 °F - 57.0 °F 70% 30.13 in 10.0 mi Calm Calm - N/A   Clear
9:54 AM 73.0 °F - 55.0 °F 53% 30.11 in 10.0 mi Calm Calm - N/A   Clear
10:54 AM 75.9 °F - 55.0 °F 48% 30.11 in 10.0 mi Calm Calm - N/A   Clear
11:54 AM 78.1 °F - 54.0 °F 43% 30.10 in 10.0 mi Variable 4.6 mph - N/A   Partly Cloudy
12:54 PM 79.0 °F - 55.0 °F 44% 30.09 in 10.0 mi SW 5.8 mph - N/A   Clear
1:54 PM 82.0 °F 81.4 °F 55.0 °F 39% 30.06 in 10.0 mi Variable 4.6 mph - N/A   Clear
2:54 PM 82.0 °F 81.4 °F 55.0 °F 39% 30.05 in 10.0 mi Variable 6.9 mph - N/A   Scattered Clouds
3:54 PM 82.0 °F 81.4 °F 55.0 °F 39% 30.04 in 10.0 mi NNW 8.1 mph - N/A   Clear
4:54 PM 81.0 °F 81.0 °F 57.0 °F 44% 30.03 in 10.0 mi WNW 5.8 mph - N/A   Clear
5:54 PM 81.0 °F 81.1 °F 57.9 °F 45% 30.03 in 10.0 mi WNW 4.6 mph - N/A   Clear
6:54 PM 79.0 °F - 59.0 °F 50% 30.03 in 10.0 mi Calm Calm - N/A   Mostly Cloudy
7:54 PM 73.0 °F - 63.0 °F 71% 30.04 in 10.0 mi Calm Calm - N/A   Mostly Cloudy
8:54 PM 69.1 °F - 62.1 °F 78% 30.05 in 10.0 mi Calm Calm - N/A   Mostly Cloudy
9:54 PM 71.1 °F - 62.1 °F 73% 30.04 in 10.0 mi SW 3.5 mph - N/A   Overcast
10:54 PM 69.1 °F - 63.0 °F 81% 30.04 in 10.0 mi NNW 3.5 mph - 0.00 in   Mostly Cloudy
11:54 PM 66.9 °F - 63.0 °F 87% 30.04 in 10.0 mi Calm Calm - N/A   Scattered Clouds